Hourly Data Report for October 14, 2019

All times are specified in Local Standard Time (LST). Add 1 hour to adjust for Daylight Saving Time where and when it is observed.

ABBOTSFORD A
BRITISH COLUMBIA
Current Station Operator: NAVCAN

49°01'31.000" N
122°21'36.000" W
59.10 m
1100031
71108
YXX

Download Data

Hourly Data (October 2019)
Hourly Data Report for October 14, 2019
TIME Temp Definition
°C
Dew Point Definition
°C
Rel Hum Definition
%
Wind Dir Definition
10's deg

Wind Spd Definition
km/h
Visibility Definition
km
Stn Press Definition
kPa
Hmdx Definition


Wind Chill Definition


Weather Definition


00:00 6.5 5.8 95 1 5 24.1 101.06     LegendNANA
01:00 6.2 5.6 96 35 6 24.1 101.09     Mostly Cloudy
02:00 5.5 4.8 95 36 3 24.1 101.09     LegendNANA
03:00 4.8 4.3 97 1 4 24.1 101.11     LegendNANA
04:00 5.3 4.9 97 36 3 24.1 101.14     Mostly Cloudy
05:00 4.7 4.2 97   0 24.1 101.18     LegendNANA
06:00 4.9 4.4 96 36 2 32.2 101.23     LegendNANA
07:00 5.1 4.6 97 15 3 48.3 101.25     Mostly Cloudy
08:00 6.9 6.4 97 36 2 48.3 101.29     LegendNANA
09:00 7.8 6.8 93 36 2 48.3 101.31     LegendNANA
10:00 9.5 6.7 83 33 5 40.2 101.34     Mostly Cloudy
11:00 12.1 7.9 76 36 8 48.3 101.32     LegendNANA
12:00 13.2 6.3 63 36 2 48.3 101.29     LegendNANA
13:00 14.3 6.3 58 35 7 48.3 101.21     Mainly Clear
14:00 14.6 6.1 56 13 5 48.3 101.19     LegendNANA
15:00 14.6 5.6 55 23 3 48.3 101.20     LegendNANA
16:00 13.9 7.3 65 19 6 48.3 101.15     Mostly Cloudy
17:00 12.9 6.3 64 36 1 48.3 101.09     LegendNANA
18:00 10.8 7.1 78 36 1 24.1 101.11     LegendNANA
19:00 10.0 7.1 82 35 6 20.9 101.15     Cloudy
20:00 10.2 6.8 79 5 6 24.1 101.11     LegendNANA
21:00 9.7 6.7 82 5 7 24.1 101.07     LegendNANA
22:00 9.0 6.6 85 6 4 24.1 101.04     Cloudy
23:00 7.5 5.6 88 36 9 24.1 101.03     LegendNANA

Notes on Data Quality.

Legend

  • E = Estimated
  • M = Missing
  • NA = Not Available
Date modified: